Location: Unspecified
(0.0000°N, 0.0000°E)
Time: 12:05:37
(UTC+00:00)

Hubble Space Telescope - Pass Details

Date: 05 December 2019
Orbit: 536 x 540 km, 28.5° (Epoch: 10 December)

Event Time Altitude Azimuth Distance (km) Brightness Sun altitude
Rises 05:00:51 0° 218° (SW) 2,680 4.2 -11.4°
Reaches altitude 10° 05:03:32 10° 201° (SSW) 1,788 3.5 -10.8°
Maximum altitude 05:06:42 21° 151° (SSE) 1,237 3.3 -10.1°
Drops below altitude 10° 05:09:52 10° 101° (ESE) 1,785 5.0 -9.4°
Sets 05:12:32 0° 85° (E) 2,674 5.6 -8.7°
